Location: ActonStarParty
(42.4766°N, 71.4538°W)
Time: 08:13:08
(UTC-05:00)

ISS - All Passes

Search period start: 21 January 2017 00:00
Search period end: 31 January 2017 00:00
Orbit: 399 x 410 km, 51.6° (Epoch: 21 January)

Date Brightness Start Highest point End Pass type
(mag) Time Alt. Az. Time Alt. Az. Time Alt. Az.
21 Jan - 00:59:26 10° NW 01:01:34 16° N 01:03:43 10° NE night (unlit)
21 Jan - 02:36:04 10° NW 02:38:52 25° NNE 02:41:38 10° ENE night (unlit)
21 Jan - 04:12:20 10° WNW 04:15:33 62° SW 04:18:45 10° SE visible
21 Jan - 20:52:47 10° SSW 20:55:35 27° SE 20:58:24 10° ENE night (unlit)
21 Jan - 22:28:51 10° W 22:31:58 40° NNW 22:35:04 10° NE night (unlit)
22 Jan - 00:06:50 10° NW 00:09:04 17° N 00:11:19 10° NE night (unlit)
22 Jan - 01:43:55 10° NW 01:46:25 20° NNE 01:48:55 10° ENE night (unlit)
22 Jan - 03:20:05 10° NW 03:23:20 71° NNE 03:26:34 10° ESE night (unlit)
22 Jan - 04:57:39 10° W 04:59:26 14° SW 05:01:12 10° SSW visible
22 Jan - 20:01:38 10° SSE 20:03:33 15° SE 20:05:26 10° E night (unlit)
22 Jan - 21:36:25 10° WSW 21:39:39 69° NNW 21:42:54 10° NE night (unlit)
22 Jan - 23:14:05 10° WNW 23:16:35 20° NNW 23:19:04 10° NE night (unlit)
23 Jan - 00:51:40 10° NW 00:53:56 17° N 00:56:11 10° NE night (unlit)
23 Jan - 02:27:54 10° NW 02:31:02 41° NNE 02:34:08 10° E night (unlit)
23 Jan - 04:04:37 10° WNW 04:07:23 26° SW 04:10:08 10° SSE night (unlit)
23 Jan - 20:44:11 10° SW 20:47:24 65° SE 20:50:39 10° ENE night (unlit)
23 Jan - 22:21:21 10° WNW 22:24:07 25° NNW 22:26:53 10° NE night (unlit)
23 Jan - 23:59:16 10° NW 00:01:24 16° N 00:03:32 10° NE night (unlit)
24 Jan - 01:35:46 10° NW 01:38:39 28° NNE 01:41:31 10° E night (unlit)
24 Jan - 03:12:05 10° WNW 03:15:15 49° SW 03:18:23 10° SE night (unlit)
24 Jan - 19:52:15 10° SSW 19:55:14 33° SE 19:58:13 10° ENE night (unlit)
24 Jan - 21:28:39 10° W 21:31:42 35° NNW 21:34:43 10° NE night (unlit)
24 Jan - 23:06:39 10° NW 23:08:51 17° N 23:11:03 10° NE night (unlit)
25 Jan - 00:43:36 10° NW 00:46:11 21° NNE 00:48:46 10° ENE night (unlit)
25 Jan - 02:19:46 10° NW 02:23:01 87° NE 02:26:16 10° SE night (unlit)
25 Jan - 03:58:01 10° WSW 03:59:01 11° SW 04:00:01 10° SSW night (unlit)
25 Jan - 19:00:47 10° S 19:03:07 18° SE 19:05:27 10° E visible
25 Jan - 20:36:06 10° WSW 20:39:19 56° NNW 20:42:32 10° NE night (unlit)
25 Jan - 22:13:55 10° WNW 22:16:19 19° N 22:18:42 10° NE night (unlit)
25 Jan - 23:51:20 10° NW 23:53:40 18° N 23:56:01 10° NE night (unlit)
26 Jan - 01:27:32 10° NW 01:30:42 49° NNE 01:33:52 10° ESE night (unlit)
26 Jan - 03:04:27 10° W 03:06:58 21° SW 03:09:28 10° S night (unlit)
26 Jan - 19:43:45 10° SW 19:47:01 81° SE 19:50:17 10° ENE visible
26 Jan - 21:21:08 10° WNW 21:23:47 23° NNW 21:26:28 10° NE night (unlit)
26 Jan - 22:58:56 10° NW 23:01:07 16° N 23:03:17 10° NE night (unlit)
27 Jan - 00:35:20 10° NW 00:38:19 32° NNE 00:41:16 10° E night (unlit)
27 Jan - 02:11:46 10° WNW 02:14:49 38° SW 02:17:51 10° SSE night (unlit)
27 Jan - 18:51:39 10° SSW 18:54:45 42° SE 18:57:53 10° ENE visible
27 Jan - 20:28:21 10° W 20:31:19 30° NNW 20:34:16 10° NE night (unlit)
27 Jan - 22:06:21 10° NW 22:08:32 16° N 22:10:41 10° NE night (unlit)
27 Jan - 23:43:08 10° NW 23:45:50 23° NNE 23:48:31 10° ENE night (unlit)
28 Jan - 01:19:20 10° WNW 01:22:35 75° SW 01:25:49 10° SE night (unlit)
28 Jan - 17:59:57 10° S 18:02:35 22° SE 18:05:13 10° E visible
28 Jan - 19:35:43 10° WSW 19:38:53 47° NNW 19:42:03 10° NE visible
28 Jan - 21:13:37 10° NW 21:15:56 18° N 21:18:16 10° NE night (unlit)
28 Jan - 22:50:52 10° NW 22:53:18 19° NNE 22:55:43 10° ENE night (unlit)
29 Jan - 00:27:02 10° NW 00:30:16 60° NNE 00:33:28 10° ESE night (unlit)
29 Jan - 02:04:15 10° W 02:06:26 17° SW 02:08:35 10° S night (unlit)
29 Jan - 17:09:05 10° SSE 17:10:28 12° SE 17:11:52 10° ESE daylight
29 Jan - 18:43:14 10° WSW 18:46:30 82° NNW 18:49:47 10° NE visible
29 Jan - 20:20:47 10° WNW 20:23:22 21° NNW 20:25:57 10° NE visible
29 Jan - 21:58:29 10° NW 22:00:42 17° N 22:02:55 10° NE night (unlit)
29 Jan - 23:34:47 10° NW 23:37:51 36° NNE 23:40:54 10° E night (unlit)
30 Jan - 01:11:21 10° WNW 01:14:16 31° SW 01:17:10 10° SSE night (unlit)
30 Jan - 17:51:00 10° SW 17:54:12 53° SE 17:57:24 10° ENE visible
30 Jan - 19:27:57 10° W 19:30:49 27° NNW 19:33:41 10° NE visible
30 Jan - 21:05:55 10° NW 21:08:05 16° N 21:10:14 10° NE night (unlit)
30 Jan - 22:42:33 10° NW 22:45:21 26° NNE 22:48:09 10° E night (unlit)
